Location: ???????
(55.9142°N, 37.8256°E)
Time: 07:58:30
(UTC+00:00)

CZ-2D R/B - Pass Details

Date: 24 July 2025
Orbit: 788 x 842 km, 98.9° (Epoch: 21 April)

Event Time Altitude Azimuth Distance (km) Brightness Sun altitude
Rises 22:56:26 0° 23° (NNE) 3,303 7.4 -12.5°
Reaches altitude 10° 22:59:10 10° 36° (NE) 2,365 5.9 -12.4°
Maximum altitude 23:03:27 25° 91° (E) 1,548 3.8 -12.2°
Drops below altitude 10° 23:07:42 10° 147° (SSE) 2,353 4.2 -11.9°
Enters shadow 23:09:14 - 155° (SSE) 2,865 4.6 -11.9°
